| time (UTC) | temp F | wind direction | speed MPH | gust MPH | rain 1hr in | rain 24hr in | rain mn in | humidity % | barometer mb |
| 20260906043001 | 50 | 0.0 | 0.0 | 0.00 | 0.12 | 0.00 | 83 | 1000.0 | |
| 20260906041559 | 50 | 0.0 | 0.0 | 0.00 | 0.12 | 0.00 | 82 | 999.7 | |
| 20260906040114 | 50 | 0.0 | 0.0 | 0.00 | 0.12 | 0.00 | 82 | 999.5 | |
| 20260906034556 | 50 | 0.0 | 0.0 | 0.00 | 0.12 | 0.00 | 82 | 999.5 | |
| 20260906033057 | 50 | 0.0 | 0.0 | 0.00 | 0.12 | 0.00 | 82 | 999.2 | |
| 20260906031556 | 50 | 0.0 | 0.0 | 0.00 | 0.12 | 0.00 | 82 | 998.9 | |
| 20260906030055 | 50 | 0.0 | 0.0 | 0.00 | 0.12 | 0.00 | 82 | 998.7 | |
| 20260906024549 | 50 | 0.0 | 0.0 | 0.00 | 0.12 | 0.00 | 82 | 998.6 | |
| 20260906023104 | 50 | 0.0 | 0.0 | 0.00 | 0.12 | 0.00 | 82 | 998.4 | |
| 20260906021546 | 50 | 0.0 | 0.0 | 0.00 | 0.12 | 0.00 | 82 | 998.3 | |
| 20260906020046 | 50 | 0.0 | 0.0 | 0.00 | 0.12 | 0.00 | 82 | 998.1 | |
| 20260906014556 | 50 | 0.0 | 0.0 | 0.00 | 0.12 | 0.00 | 82 | 997.9 | |
| 20260906013044 | 50 | 0.0 | 0.0 | 0.00 | 0.12 | 0.00 | 82 | 997.9 | |
| 20260906011552 | 50 | 0.0 | 0.0 | 0.00 | 0.12 | 0.00 | 82 | 997.8 | |
| 20260906010042 | 50 | 0.0 | 0.0 | 0.00 | 0.12 | 0.00 | 82 | 997.8 | |
| 20260906004541 | 50 | 0.0 | 0.0 | 0.00 | 0.13 | 0.00 | 81 | 997.7 | |
| 20260906003140 | 49 | 0.0 | 0.0 | 0.00 | 0.13 | 0.00 | 80 | 997.7 | |
| 20260906001538 | 50 | 0.0 | 0.0 | 0.00 | 0.13 | 0.00 | 80 | 997.5 | |
| 20260906000039 | 50 | 0.0 | 0.0 | 0.00 | 0.13 | 0.00 | 80 | 997.4 | |
| 20260905234547 | 50 | 0.0 | 0.0 | 0.00 | 0.13 | 0.00 | 80 | 997.4 | |
| 20260905233137 | 50 | 0.0 | 0.0 | 0.00 | 0.13 | 0.00 | 80 | 997.3 | |
| 20260905231536 | 49 | 0.0 | 0.0 | 0.00 | 0.13 | 0.00 | 79 | 997.3 | |
| 20260905230041 | 50 | 0.0 | 0.0 | 0.00 | 0.13 | 0.00 | 79 | 997.3 | |
| 20260905224537 | 50 | 0.0 | 0.0 | 0.00 | 0.13 | 0.00 | 79 | 997.2 | |
| 20260905223132 | 50 | 0.0 | 0.0 | 0.00 | 0.13 | 0.00 | 79 | 997.2 | |
| 20260905221528 | 50 | 0.0 | 0.0 | 0.00 | 0.13 | 0.00 | 78 | 997.0 | |
| 20260905220026 | 51 | 0.0 | 0.0 | 0.00 | 0.13 | 0.00 | 78 | 997.0 | |
| 20260905214524 | 51 | 0.0 | 0.0 | 0.00 | 0.13 | 0.00 | 78 | 996.9 | |
| 20260905213123 | 52 | 0.0 | 0.0 | 0.00 | 0.13 | 0.00 | 78 | 996.9 | |
| 20260905211522 | 52 | 0.0 | 0.0 | 0.00 | 0.13 | 0.00 | 78 | 996.8 | |
| 20260905210017 | 53 | 0.0 | 0.0 | 0.00 | 0.13 | 0.13 | 78 | 996.8 | |
| 20260905204517 | 53 | 0.0 | 0.0 | 0.00 | 0.13 | 0.13 | 79 | 996.6 | |
| 20260905203015 | 53 | 0.0 | 0.0 | 0.00 | 0.13 | 0.13 | 79 | 996.4 | |
| 20260905201518 | 53 | 0.0 | 0.0 | 0.00 | 0.13 | 0.13 | 79 | 996.3 | |
| 20260905200012 | 53 | 0.0 | 0.0 | 0.00 | 0.13 | 0.13 | 79 | 996.2 | |
| 20260905194511 | 53 | 0.0 | 0.0 | 0.00 | 0.13 | 0.13 | 78 | 996.2 | |
| 20260905193011 | 53 | 0.0 | 0.0 | 0.00 | 0.13 | 0.13 | 78 | 996.1 | |
| 20260905191511 | 54 | 0.0 | 0.0 | 0.00 | 0.13 | 0.13 | 78 | 996.0 | |
| 20260905190023 | 54 | 0.0 | 0.0 | 0.00 | 0.13 | 0.13 | 78 | 996.0 | |
| 20260905184507 | 54 | 0.0 | 0.0 | 0.00 | 0.13 | 0.13 | 78 | 996.0 | |
| 20260905183010 | 54 | 0.0 | 0.0 | 0.00 | 0.13 | 0.13 | 78 | 995.8 | |
| 20260905181511 | 54 | 0.0 | 0.0 | 0.00 | 0.13 | 0.13 | 77 | 995.9 | |
| 20260905180005 | 54 | 0.0 | 0.0 | 0.00 | 0.13 | 0.13 | 77 | 995.7 | |
| 20260905174504 | 55 | 0.0 | 0.0 | 0.00 | 0.13 | 0.13 | 77 | 995.6 | |
| 20260905173004 | 55 | 0.0 | 0.0 | 0.00 | 0.13 | 0.13 | 76 | 995.6 | |
| 20260905171502 | 55 | 0.0 | 0.0 | 0.00 | 0.13 | 0.13 | 76 | 995.4 | |
| 20260905170101 | 55 | 0.0 | 0.0 | 0.00 | 0.13 | 0.13 | 76 | 995.2 | |
| 20260905164605 | 56 | 0.0 | 0.0 | 0.00 | 0.13 | 0.13 | 75 | 995.1 | |
| 20260905163059 | 56 | 0.0 | 0.0 | 0.00 | 0.13 | 0.13 | 74 | 995.2 | |
| 20260905161557 | 56 | 0.0 | 0.0 | 0.00 | 0.13 | 0.13 | 73 | 995.0 | |
| 20260905160114 | 57 | 0.0 | 0.0 | 0.00 | 0.13 | 0.13 | 72 | 994.8 | |
| 20260905154555 | 57 | 0.0 | 0.0 | 0.00 | 0.13 | 0.13 | 71 | 994.7 | |
| 20260905153101 | 57 | 0.0 | 0.0 | 0.00 | 0.13 | 0.13 | 71 | 994.6 | |
| 20260905151552 | 57 | 0.0 | 0.0 | 0.00 | 0.13 | 0.13 | 70 | 994.5 | |
| 20260905150054 | 56 | 0.0 | 0.0 | 0.00 | 0.13 | 0.13 | 71 | 994.4 | |
| 20260905144549 | 56 | 0.0 | 0.0 | 0.00 | 0.13 | 0.13 | 73 | 994.2 | |
| 20260905143048 | 56 | 0.0 | 0.0 | 0.00 | 0.13 | 0.13 | 75 | 994.2 | |
| 20260905141554 | 56 | 0.0 | 0.0 | 0.00 | 0.13 | 0.13 | 75 | 994.0 | |
| 20260905140047 | 56 | 0.0 | 0.0 | 0.01 | 0.13 | 0.13 | 75 | 993.9 | |
| 20260905134546 | 56 | 0.0 | 0.0 | 0.05 | 0.13 | 0.13 | 76 | 993.9 | |
| 20260905133044 | 56 | 0.0 | 0.0 | 0.05 | 0.13 | 0.13 | 76 | 993.8 | |
| 20260905131558 | 55 | 0.0 | 0.0 | 0.05 | 0.13 | 0.13 | 74 | 993.8 | |
| 20260905130048 | 57 | 0.0 | 0.0 | 0.03 | 0.11 | 0.11 | 71 | 993.5 | |
| 20260905124539 | 59 | 0.0 | 0.0 | 0.00 | 0.08 | 0.08 | 72 | 993.3 | |
| 20260905123037 | 59 | 0.0 | 0.0 | 0.01 | 0.08 | 0.08 | 74 | 993.1 | |
| 20260905121537 | 58 | 0.0 | 0.0 | 0.01 | 0.08 | 0.08 | 75 | 992.9 | |
| 20260905120039 | 57 | 0.0 | 0.0 | 0.02 | 0.08 | 0.08 | 75 | 992.8 | |
| 20260905114532 | 56 | 0.0 | 0.0 | 0.02 | 0.08 | 0.08 | 76 | 992.9 | |
| 20260905113032 | 55 | 0.0 | 0.0 | 0.05 | 0.07 | 0.07 | 75 | 992.9 | |
| 20260905111554 | 55 | 0.0 | 0.0 | 0.06 | 0.07 | 0.07 | 75 | 992.7 | |
| 20260905110030 | 56 | 0.0 | 0.0 | 0.04 | 0.06 | 0.06 | 76 | 992.7 | |
| 20260905104528 | 56 | 0.0 | 0.0 | 0.05 | 0.06 | 0.06 | 77 | 992.6 | |
| 20260905103028 | 57 | 0.0 | 0.0 | 0.02 | 0.03 | 0.02 | 76 | 992.4 | |
| 20260905101527 | 57 | 0.0 | 0.0 | 0.01 | 0.02 | 0.02 | 75 | 992.3 | |
| 20260905100026 | 57 | 0.0 | 0.0 | 0.01 | 0.02 | 0.02 | 74 | 992.2 | |
| 20260905094526 | 57 | 0.0 | 0.0 | 0.00 | 0.16 | 0.01 | 73 | 992.1 | |
| 20260905093022 | 58 | 0.0 | 0.0 | 0.00 | 0.16 | 0.01 | 72 | 992.0 | |
| 20260905091519 | 57 | 0.0 | 0.0 | 0.00 | 0.16 | 0.01 | 72 | 991.9 | |
| 20260905090018 | 57 | 0.0 | 0.0 | 0.00 | 0.46 | 0.01 | 73 | 991.9 | |
| 20260905084516 | 57 | 0.0 | 0.0 | 0.00 | 0.46 | 0.01 | 73 | 991.6 | |
| 20260905083016 | 57 | 0.0 | 0.0 | 0.00 | 0.46 | 0.01 | 73 | 991.5 | |
| 20260905081515 | 57 | 0.0 | 0.0 | 0.00 | 0.46 | 0.01 | 74 | 991.4 | |
| 20260905080014 | 56 | 0.0 | 0.0 | 0.00 | 0.46 | 0.01 | 74 | 991.3 | |
| 20260905074513 | 57 | 0.0 | 0.0 | 0.00 | 0.46 | 0.01 | 75 | 991.1 | |
| 20260905073011 | 56 | 0.0 | 0.0 | 0.00 | 0.46 | 0.01 | 78 | 991.1 | |
| 20260905071508 | 55 | 0.0 | 0.0 | 0.00 | 0.46 | 0.01 | 83 | 991.1 | |
| 20260905070006 | 54 | 0.0 | 0.0 | 0.00 | 0.47 | 0.01 | 84 | 991.0 | |
| 20260905064505 | 54 | 0.0 | 0.0 | 0.00 | 0.47 | 0.01 | 85 | 990.7 | |
| 20260905063005 | 54 | 0.0 | 0.0 | 0.00 | 0.47 | 0.01 | 85 | 990.7 | |
| 20260905061504 | 54 | 0.0 | 0.0 | 0.00 | 0.47 | 0.01 | 85 | 990.5 | |
| 20260905060004 | 53 | 0.0 | 0.0 | 0.00 | 0.50 | 0.01 | 85 | 990.5 | |
| 20260905054506 | 53 | 0.0 | 0.0 | 0.00 | 0.50 | 0.01 | 85 | 990.3 | |
| 20260905053002 | 53 | 0.0 | 0.0 | 0.00 | 0.50 | 0.01 | 85 | 990.1 | |
| 20260905051501 | 53 | 0.0 | 0.0 | 0.00 | 0.50 | 0.01 | 85 | 990.1 | |
| 20260905050001 | 53 | 0.0 | 0.0 | 0.00 | 0.50 | 0.01 | 85 | 990.2 | |
| 20260905044602 | 53 | 0.0 | 0.0 | 0.00 | 0.50 | 0.01 | 85 | 990.1 |